EN

Hourly Weather Bolshoe Rybino

Today, 21 October, Wednesday

Time Temperature Precipitation Wind Pressure Humidity
00:00 -1°C° 0 mm 3 mps 745 mmHg 88%
01:00 -1°C° 0 mm 3 mps 746 mmHg 90%
02:00 -2°C° 0 mm 3 mps 746 mmHg 92%
03:00 -2°C° 0 mm 3 mps 746 mmHg 91%
04:00 -1°C° 0 mm 3 mps 747 mmHg 90%
05:00 -1°C° 0 mm 2 mps 747 mmHg 89%
06:00 -1°C° 0 mm 2 mps 747 mmHg 85%
07:00 +1°C° 0 mm 2 mps 747 mmHg 81%
08:00 +2°C° 0 mm 2 mps 747 mmHg 77%
09:00 +2°C° 0 mm 3 mps 747 mmHg 74%
10:00 +2°C° 0 mm 3 mps 746 mmHg 70%
11:00 +3°C° 0 mm 3 mps 746 mmHg 67%
12:00 +4°C° 0.1 mm 3 mps 746 mmHg 69%
13:00 +4°C° 0.1 mm 3 mps 745 mmHg 72%
14:00 +4°C° 0.1 mm 3 mps 745 mmHg 75%
15:00 +4°C° 0.2 mm 3 mps 745 mmHg 79%
16:00 +3°C° 0.2 mm 4 mps 744 mmHg 84%
17:00 +3°C° 0.2 mm 4 mps 744 mmHg 89%
18:00 +3°C° 0.1 mm 3 mps 744 mmHg 90%
19:00 +4°C° 0.1 mm 3 mps 743 mmHg 91%
20:00 +4°C° 0.1 mm 3 mps 743 mmHg 93%
21:00 +5°C° 0 mm 2 mps 743 mmHg 93%
22:00 +5°C° 0 mm 2 mps 743 mmHg 94%
23:00 +5°C° 0 mm 2 mps 742 mmHg 95%

Tomorrow, 22 October, Thursday

Time Temperature Precipitation Wind Pressure Humidity
00:00 +5°C° 0 mm 2 mps 743 mmHg 95%
01:00 +5°C° 0 mm 2 mps 743 mmHg 96%
02:00 +6°C° 0 mm 1 mps 743 mmHg 96%
03:00 +6°C° 0 mm 1 mps 743 mmHg 96%
04:00 +6°C° 0 mm 1 mps 742 mmHg 95%
05:00 +5°C° 0 mm 2 mps 742 mmHg 95%
06:00 +5°C° 0 mm 2 mps 742 mmHg 94%
07:00 +6°C° 0 mm 2 mps 742 mmHg 93%
08:00 +6°C° 0 mm 2 mps 742 mmHg 92%
09:00 +7°C° 0 mm 3 mps 742 mmHg 87%
10:00 +8°C° 0 mm 3 mps 742 mmHg 82%
11:00 +9°C° 0 mm 3 mps 742 mmHg 77%
12:00 +8°C° 0.1 mm 3 mps 741 mmHg 80%
13:00 +8°C° 0.1 mm 3 mps 741 mmHg 82%
14:00 +8°C° 0.1 mm 3 mps 741 mmHg 85%
15:00 +7°C° 0.1 mm 4 mps 740 mmHg 85%
16:00 +7°C° 0.1 mm 4 mps 739 mmHg 86%
17:00 +7°C° 0.1 mm 5 mps 739 mmHg 87%
18:00 +7°C° 0 mm 5 mps 739 mmHg 87%
19:00 +7°C° 0 mm 5 mps 738 mmHg 87%
20:00 +7°C° 0 mm 5 mps 738 mmHg 87%
21:00 +7°C° 0 mm 5 mps 738 mmHg 88%
22:00 +7°C° 0 mm 5 mps 738 mmHg 90%
23:00 +7°C° 0 mm 5 mps 738 mmHg 91%

Day after tomorrow, 23 October, Friday

Time Temperature Precipitation Wind Pressure Humidity
00:00 +7°C° 0 mm 5 mps 738 mmHg 92%
01:00 +7°C° 0 mm 5 mps 738 mmHg 92%
02:00 +7°C° 0 mm 5 mps 738 mmHg 93%
03:00 +7°C° 0 mm 5 mps 739 mmHg 93%
04:00 +7°C° 0 mm 5 mps 739 mmHg 92%
05:00 +8°C° 0 mm 5 mps 739 mmHg 92%
06:00 +8°C° 0 mm 5 mps 739 mmHg 92%
07:00 +8°C° 0 mm 5 mps 739 mmHg 92%
08:00 +8°C° 0 mm 4 mps 739 mmHg 92%
09:00 +9°C° 0 mm 5 mps 739 mmHg 88%
10:00 +10°C° 0 mm 5 mps 739 mmHg 83%
11:00 +13°C° 0 mm 5 mps 739 mmHg 78%
12:00 +13°C° 0 mm 5 mps 738 mmHg 77%
13:00 +13°C° 0 mm 5 mps 738 mmHg 76%
14:00 +14°C° 0 mm 5 mps 738 mmHg 75%
15:00 +13°C° 0 mm 5 mps 737 mmHg 78%
16:00 +13°C° 0 mm 5 mps 737 mmHg 81%
17:00 +12°C° 0 mm 5 mps 736 mmHg 84%
18:00 +12°C° 0.1 mm 5 mps 736 mmHg 85%
19:00 +11°C° 0.1 mm 6 mps 735 mmHg 85%
20:00 +11°C° 0.1 mm 6 mps 735 mmHg 86%
21:00 +11°C° 0.7 mm 6 mps 735 mmHg 88%
22:00 +11°C° 0.7 mm 6 mps 735 mmHg 89%
23:00 +12°C° 0.7 mm 5 mps 735 mmHg 91%

24 October, Saturday

Time Temperature Precipitation Wind Pressure Humidity
00:00 +10°C° 0 mm 5 mps 735 mmHg 90%
01:00 +10°C° 0 mm 5 mps 736 mmHg 89%
02:00 +10°C° 0 mm 5 mps 736 mmHg 88%
03:00 +9°C° 0 mm 5 mps 736 mmHg 90%
04:00 +10°C° 0 mm 4 mps 736 mmHg 92%
05:00 +8°C° 0 mm 4 mps 736 mmHg 94%
06:00 +8°C° 0 mm 4 mps 737 mmHg 93%
07:00 +8°C° 0 mm 4 mps 737 mmHg 92%
08:00 +8°C° 0 mm 4 mps 737 mmHg 91%
09:00 +10°C° 0 mm 4 mps 738 mmHg 87%
10:00 +10°C° 0 mm 3 mps 738 mmHg 84%
11:00 +10°C° 0 mm 3 mps 738 mmHg 81%
12:00 +11°C° 0 mm 3 mps 738 mmHg 79%
13:00 +12°C° 0 mm 2 mps 738 mmHg 76%
14:00 +12°C° 0 mm 2 mps 738 mmHg 74%
15:00 +10°C° 0 mm 2 mps 738 mmHg 78%
16:00 +11°C° 0 mm 1 mps 737 mmHg 82%
17:00 +10°C° 0 mm 1 mps 737 mmHg 85%
18:00 +10°C° 0 mm 1 mps 737 mmHg 85%
19:00 +10°C° 0 mm 1 mps 737 mmHg 85%
20:00 +10°C° 0 mm 1 mps 737 mmHg 85%
21:00 +10°C° 0 mm 1 mps 736 mmHg 85%
22:00 +9°C° 0 mm 2 mps 736 mmHg 85%
23:00 +9°C° 0 mm 2 mps 735 mmHg 85%

25 October, Sunday

Time Temperature Precipitation Wind Pressure Humidity
00:00 +9°C° 0.5 mm 3 mps 734 mmHg 88%
01:00 +8°C° 0.5 mm 4 mps 734 mmHg 90%
02:00 +8°C° 0.5 mm 5 mps 733 mmHg 92%
03:00 +8°C° 1.8 mm 5 mps 732 mmHg 93%
04:00 +9°C° 1.8 mm 6 mps 731 mmHg 94%
05:00 +9°C° 1.8 mm 6 mps 730 mmHg 94%
06:00 +9°C° 1.5 mm 6 mps 730 mmHg 93%
07:00 +9°C° 1.5 mm 5 mps 729 mmHg 91%
08:00 +8°C° 1.5 mm 5 mps 729 mmHg 89%
09:00 +9°C° 0.4 mm 5 mps 729 mmHg 87%
10:00 +9°C° 0.4 mm 5 mps 729 mmHg 85%
11:00 +9°C° 0.4 mm 5 mps 729 mmHg 83%
12:00 +9°C° 0.9 mm 5 mps 730 mmHg 85%
13:00 +8°C° 0.9 mm 5 mps 730 mmHg 88%
14:00 +8°C° 0.9 mm 5 mps 730 mmHg 90%
15:00 +8°C° 0.5 mm 7 mps 731 mmHg 89%
16:00 +6°C° 0.5 mm 8 mps 732 mmHg 87%
17:00 +6°C° 0.5 mm 9 mps 733 mmHg 86%
18:00 +6°C° 0.1 mm 9 mps 734 mmHg 85%
19:00 +6°C° 0.1 mm 8 mps 735 mmHg 85%
20:00 +6°C° 0.1 mm 8 mps 736 mmHg 84%
21:00 +6°C° 0 mm 7 mps 737 mmHg 84%
22:00 +6°C° 0 mm 7 mps 738 mmHg 84%
23:00 +5°C° 0 mm 7 mps 738 mmHg 84%

26 October, Monday

Time Temperature Precipitation Wind Pressure Humidity
00:00 +5°C° 0 mm 6 mps 739 mmHg 85%
01:00 +5°C° 0 mm 6 mps 740 mmHg 86%
02:00 +4°C° 0 mm 6 mps 740 mmHg 87%
03:00 +5°C° 0 mm 5 mps 741 mmHg 86%
04:00 +5°C° 0 mm 5 mps 742 mmHg 85%
05:00 +5°C° 0 mm 4 mps 742 mmHg 84%
06:00 +5°C° 0 mm 4 mps 743 mmHg 85%
07:00 +4°C° 0 mm 4 mps 743 mmHg 86%
08:00 +4°C° 0 mm 4 mps 744 mmHg 88%
09:00 +5°C° 0 mm 4 mps 744 mmHg 82%
10:00 +6°C° 0 mm 4 mps 745 mmHg 76%
11:00 +7°C° 0 mm 4 mps 745 mmHg 71%
12:00 +8°C° 0 mm 3 mps 745 mmHg 70%
13:00 +9°C° 0 mm 3 mps 745 mmHg 69%
14:00 +9°C° 0 mm 3 mps 746 mmHg 68%
15:00 +8°C° 0 mm 3 mps 746 mmHg 73%
16:00 +7°C° 0 mm 2 mps 746 mmHg 79%
17:00 +6°C° 0 mm 2 mps 747 mmHg 84%
18:00 +5°C° 0 mm 2 mps 747 mmHg 86%
19:00 +5°C° 0 mm 2 mps 747 mmHg 88%
20:00 +5°C° 0 mm 2 mps 748 mmHg 89%
21:00 +4°C° 0 mm 2 mps 748 mmHg 89%
22:00 +5°C° 0 mm 1 mps 748 mmHg 89%
23:00 +5°C° 0 mm 1 mps 748 mmHg 89%

27 October, Tuesday

Time Temperature Precipitation Wind Pressure Humidity
00:00 +4°C° 0 mm 1 mps 749 mmHg 87%
01:00 +4°C° 0 mm 1 mps 749 mmHg 86%
02:00 +4°C° 0 mm 1 mps 749 mmHg 85%
03:00 +4°C° 0 mm 1 mps 749 mmHg 84%
04:00 +4°C° 0 mm 1 mps 750 mmHg 84%
05:00 +3°C° 0 mm 1 mps 750 mmHg 83%
06:00 +4°C° 0 mm 1 mps 750 mmHg 82%
07:00 +4°C° 0 mm 1 mps 751 mmHg 80%
08:00 +5°C° 0 mm 1 mps 751 mmHg 78%
09:00 +6°C° 0 mm 1 mps 751 mmHg 73%
10:00 +6°C° 0 mm 2 mps 751 mmHg 67%
11:00 +8°C° 0 mm 2 mps 752 mmHg 61%
12:00 +8°C° 0 mm 2 mps 751 mmHg 60%
13:00 +8°C° 0 mm 2 mps 751 mmHg 59%
14:00 +9°C° 0 mm 2 mps 751 mmHg 57%
15:00 +8°C° 0 mm 2 mps 752 mmHg 62%
16:00 +7°C° 0 mm 2 mps 752 mmHg 66%
17:00 +5°C° 0 mm 2 mps 752 mmHg 71%
18:00 +5°C° 0 mm 2 mps 752 mmHg 71%
19:00 +4°C° 0 mm 2 mps 752 mmHg 72%
20:00 +4°C° 0 mm 2 mps 752 mmHg 73%
21:00 +4°C° 0 mm 2 mps 752 mmHg 74%
22:00 +3°C° 0 mm 2 mps 752 mmHg 75%
23:00 +3°C° 0 mm 2 mps 752 mmHg 76%
Show more